Location: Malvern Link
(52.1333°N, 2.3000°W)
Time: 03:09:08
(UTC+00:00)

Cosmos 1634 Rocket - Pass Details

Date: 05 December 2021
Orbit: 959 x 993 km, 82.9° (Epoch: 21 January)

Event Time Altitude Azimuth Distance (km) Brightness Sun altitude
Rises 19:48:25 0° 242° (WSW) 3,704 7.7 -34.1°
Reaches altitude 10° 19:51:47 10° 260° (W) 2,760 7.1 -34.6°
Maximum altitude 19:56:08 19° 303° (WNW) 2,182 6.3 -35.2°
Drops below altitude 10° 20:00:30 10° 347° (NNW) 2,766 6.6 -35.9°
Sets 20:03:54 0° 5° (N) 3,715 7.1 -36.4°
